#timestamp,LO_Frequency,Hit,StdDev 
1569654015.4,286046992.4,N
1569654035.2,286046993.6,N
1569654055.1,286046999.6,N
1569654056.0,286046999.6,N
1569654075.8,286046990.4,N
1569654095.6,286046980.6,Y
1569654115.5,286046989.4,P
1569654135.3,286046991.0,N
1569654155.1,286046986.9,P
1569654175.9,286046985.5,Y
1569654195.7,286046994.7,P
1569654215.6,286046990.3,P
1569654235.4,286046986.2,P
1569654255.2,286046988.9,Y
1569654275.1,286046997.0,P
1569654276.0,286046997.0,N
1569654295.8,286046991.9,N
1569654315.7,286046992.4,N
1569654335.5,286046992.7,N
1569654355.3,286046985.5,Y
1569654375.2,286046997.1,P
1569654395.0,286046997.5,N
1569654395.9,286046997.5,N
1569654415.7,286046996.0,N
1569654435.6,286046998.5,N
1569654455.4,286047001.2,N
1569654475.3,286046996.5,N
1569654495.1,286046994.1,N
1569654496.0,286046994.1,N
1569654515.8,286046996.6,N
1569654535.7,286046990.6,Y
1569654555.5,286046994.2,P
1569654575.3,286046990.8,P
1569654595.2,286046991.1,P
1569654615.0,286046989.7,Y
1569654615.9,286046989.7,P
1569654635.8,286046992.2,P
1569654655.6,286046990.7,P
1569654675.4,286046989.1,Y
1569654695.3,286046998.5,P
1569654715.1,286046995.6,N
1569654735.9,286047003.9,N
1569654755.7,286047000.7,N
1569654775.5,286046999.1,N
1569654795.4,286046997.2,N
1569654815.2,286047009.2,N
1569654835.0,286047004.1,N
1569654835.9,286047004.1,N
1569654855.8,286047007.6,N
1569654875.6,286047005.6,N
1569654895.5,286047004.6,N
1569654915.3,286047005.8,N
1569654935.1,286047002.4,N
1569654955.9,286046995.8,N
1569654975.7,286046995.1,N
1569654995.5,286046996.2,N
1569655015.4,286046992.1,N
1569655035.2,286046995.5,N
1569655055.0,286046999.9,N
1569655056.0,286046999.9,N
1569655075.8,286047007.4,N
1569655095.6,286047006.0,N
1569655115.5,286047001.9,N
1569655135.3,286047005.7,N
1569655155.1,286046999.7,N
1569655175.9,286046998.4,N
1569655195.7,286046995.6,N
1569655215.5,286046991.9,N
1569655235.4,286046994.8,N
1569655255.2,286046990.2,N
1569655275.1,286046993.4,N
1569655276.0,286046993.4,N
1569655295.8,286046997.6,N
1569655315.6,286046992.5,N
1569655335.5,286046990.6,N
1569655355.3,286046996.0,N
1569655375.1,286046995.7,N
1569655395.9,286047003.3,N
1569655415.7,286047005.6,N
1569655435.6,286046999.3,N
1569655455.4,286046990.5,N
1569655475.2,286046987.2,N
1569655495.1,286046988.4,N
1569655496.0,286046988.4,N
1569655515.8,286046993.0,N
1569655535.6,286046988.7,N
1569655555.5,286046985.4,N
1569655575.3,286046981.2,Y
1569655595.2,286046990.5,P
1569655615.9,286046992.4,N
1569655635.7,286046992.7,P
1569655655.6,286046988.3,Y
1569655675.4,286046987.8,P
1569655695.3,286046989.4,P
1569655715.1,286046987.1,P
1569655716.0,286046987.1,Y
1569655735.8,286046998.8,P
1569655755.7,286046998.4,N
1569655775.5,286046994.2,N
1569655795.3,286046990.8,N
1569655815.2,286046997.3,N
1569655835.0,286046998.0,N
1569655835.9,286046998.0,N
1569655855.8,286046998.7,N
1569655875.6,286047000.4,N
1569655895.4,286047004.2,N
1569655915.3,286046996.9,N
1569655935.1,286046991.3,N
1569655955.8,286046988.3,N
1569655975.7,286046986.3,Y
1569655995.5,286046987.6,P
1569656015.4,286046987.4,N
1569656035.2,286046986.6,P
1569656055.0,286046991.4,N
1569656055.9,286046991.4,N
1569656075.8,286046988.8,Y
1569656095.6,286047001.2,P
1569656115.4,286046997.0,N
1569656135.3,286046999.5,N
1569656155.1,286046999.7,N
1569656175.9,286047004.1,N
1569656195.7,286047003.5,N
1569656215.5,286046996.6,N
1569656235.4,286046999.2,N
1569656255.2,286047000.3,N
1569656275.0,286047003.8,N
1569656275.9,286047003.8,N
1569656295.8,286046997.2,N
1569656315.6,286046986.9,Y
1569656335.5,286046986.2,P
1569656355.3,286046987.9,N
1569656375.1,286046990.0,N
1569656395.9,286046986.6,N
1569656415.7,286046979.0,Y
1569656435.5,286046985.4,P
1569656455.4,286046980.5,P
1569656475.2,286046985.8,P
1569656495.1,286046990.0,N
1569656496.0,286046990.0,N
1569656515.8,286046981.9,Y
1569656535.6,286046995.7,P
1569656555.5,286046997.5,N
1569656575.3,286046994.8,N
1569656595.1,286046994.7,N
1569656615.9,286046995.7,N
1569656635.7,286046996.8,N
1569656655.6,286046992.4,N
1569656675.4,286046989.3,Y
1569656695.2,286046991.9,P
1569656715.1,286046994.2,P
1569656716.0,286046994.2,P
1569656735.8,286046993.2,Y
1569656755.7,286046997.9,P
1569656775.5,286046996.5,N
1569656795.3,286047001.1,N
1569656815.2,286047000.3,N
1569656835.0,286047005.1,N
1569656835.9,286047005.1,N
1569656855.8,286046999.9,N
1569656875.6,286046998.5,N
1569656925.5,286046998.2,E
1569656935.4,286047003.8,N
1569656955.2,286046998.8,P
1569656975.1,286046991.8,P
1569656976.0,286046991.8,N
1569656995.8,286046987.1,N
1569657015.6,286046983.8,N
1569657035.5,286046984.6,N
1569657055.3,286046982.4,N
1569657075.1,286046987.7,N
1569657095.9,286046991.9,N
1569657115.7,286046996.4,N
1569657135.6,286046997.9,N
1569657155.4,286046996.0,N
1569657175.2,286046995.4,N
1569657195.1,286046993.1,N
1569657196.0,286046993.1,N
1569657215.8,286046989.4,N
1569657235.6,286046989.5,N
1569657255.5,286046991.5,N
1569657275.3,286046985.2,N
1569657295.2,286046983.2,Y
1569657315.9,286046988.9,P
1569657335.7,286046992.0,P
1569657355.6,286046992.3,P
1569657375.4,286046996.4,N
1569657395.2,286046995.8,N
1569657415.1,286047001.6,N
1569657416.0,286047001.6,N
1569657435.8,286047003.7,N
1569657455.7,286047002.1,N
1569657475.5,286046998.8,N
1569657495.3,286046993.5,N
1569657515.2,286046990.7,N
1569657535.0,286046987.2,N
1569657535.9,286046987.2,N
1569657555.8,286046987.9,N
1569657575.6,286046982.9,Y
1569657595.4,286046986.6,P
